Catalina Express — WCJ6210 — position and weather

sailwx.info

Track history (hours):
 
Tides and Currents Weather Stations Pressure Air Temp Water Temp Dewpoint Dewpoint Depression Visibility Wind Speed Wind Dir Waves Ship Positions

Catalina Express

Owner: RGWT INC, Long Beach, CA. More information available from US FCC via Universal Licensing System and Coast Guard Vessel Documentation Center.

Last reported at 2017-Dec-11 01:49 UTC. Time now 2017-Dec-12 04:48 UTC.
Position N 33°27' W 117°42'.

; draft 1.1 m.

Type: High speed craft. MMSI: 366943960.

Date/timePositionNaut miles runAvg speedWind from/ knotsBaromVisibWave heightAir tempDewpointWater temp
2017-Dec-11 01:49N 33°27' W 117°42'620.7
2017-Dec-11 01:31N 33°26' W 117°49'2 0.6
2017-Dec-10 22:46N 33°26' W 117°47'518.1
2017-Dec-10 22:30N 33°28' W 117°42'0 0.0
2017-Dec-10 22:00N 33°28' W 117°42'0 0.0
2017-Dec-10 21:30N 33°28' W 117°42'2 3.0
2017-Dec-10 21:00N 33°27' W 117°43'2712.5
2017-Dec-10 18:53N 33°21' W 118°14'2127.3
2017-Dec-10 18:07N 33°25' W 117°50'527.5
2017-Dec-10 17:55N 33°27' W 117°43'2 0.1
2017-Dec-10 01:55N 33°28' W 117°42'18 2.5
2017-Dec-09 18:34N 33°24' W 118°03'226.4
2017-Dec-09 18:30N 33°24' W 118°01'1326.1
2017-Dec-09 18:00N 33°26' W 117°46'4 7.5
2017-Dec-09 17:30N 33°28' W 117°42'0 0.0
2017-Dec-09 02:50N 33°28' W 117°42'0 0.0
2017-Dec-09 02:30N 33°28' W 117°42'0 0.0
2017-Dec-09 02:00N 33°28' W 117°42'613.0
2017-Dec-09 01:30N 33°25' W 117°49'1427.3
2017-Dec-09 01:00N 33°23' W 118°05'8 7.9
2017-Dec-08 23:59N 33°21' W 118°15'1527.2
2017-Dec-08 23:26N 33°25' W 117°58'4 7.7
2017-Dec-08 22:59N 33°25' W 117°54'1022.1
2017-Dec-08 22:30N 33°28' W 117°42'0 0.0
2017-Dec-08 22:00N 33°28' W 117°42'0 0.0
2017-Dec-08 21:31N 33°28' W 117°42'1 2.2
2017-Dec-08 21:00N 33°27' W 117°42'18 7.4
2017-Dec-08 18:35N 33°23' W 118°03'227.1
2017-Dec-08 18:30N 33°23' W 118°01'1326.9
2017-Dec-08 18:01N 33°26' W 117°45'3 6.5
2017-Dec-08 17:30N 33°28' W 117°42'0 0.0
2017-Dec-08 17:00N 33°28' W 117°42'0 0.1
2017-Dec-08 16:21N 33°28' W 117°41'0 0.0
2017-Dec-08 01:44N 33°27' W 117°42'0 0.0
2017-Dec-07 02:24N 33°28' W 117°42'0 0.0
2017-Dec-07 01:57N 33°28' W 117°42'2822.6
2017-Dec-07 00:42N 33°22' W 118°15'  
2017-Dec-04 01:54N 33°28' W 117°42'819.6
2017-Dec-04 01:30N 33°25' W 117°50'1 0.2
2017-Dec-03 22:52N 33°26' W 117°50'7 4.3
2017-Dec-03 21:11N 33°27' W 117°41'525.6
2017-Dec-03 20:59N 33°26' W 117°47'2323.5
2017-Dec-03 20:00N 33°22' W 118°15'28 1.6
2017-Dec-03 02:07N 33°28' W 117°42'0 0.0
2017-Dec-03 02:00N 33°28' W 117°42'715.3
2017-Dec-03 01:30N 33°24' W 117°50'24 4.4
2017-Dec-02 20:07N 33°23' W 118°18'327.9
2017-Dec-02 19:59N 33°27' W 118°17'1328.1
2017-Dec-02 19:31N 33°40' W 118°12'612.5
2017-Dec-02 19:00N 33°46' W 118°12'  
Track history (hours):
 
Tides and Currents Weather Stations Pressure Air Temp Water Temp Dewpoint Dewpoint Depression Visibility Wind Speed Wind Dir Waves Ship Positions

Catalina Express

Owner: RGWT INC, Long Beach, CA. More information available from US FCC via Universal Licensing System and Coast Guard Vessel Documentation Center.

Last reported at 2017-Dec-11 01:49 UTC. Time now 2017-Dec-12 04:48 UTC.
Position N 33°27' W 117°42'.

; draft 1.1 m.

Type: High speed craft. MMSI: 366943960.

Date/timePositionNaut miles runAvg speedWind from/ knotsBaromVisibWave heightAir tempDewpointWater temp
2017-Dec-11 01:49N 33°27' W 117°42'620.7
2017-Dec-11 01:31N 33°26' W 117°49'2 0.6
2017-Dec-10 22:46N 33°26' W 117°47'518.1
2017-Dec-10 22:30N 33°28' W 117°42'0 0.0
2017-Dec-10 22:00N 33°28' W 117°42'0 0.0
2017-Dec-10 21:30N 33°28' W 117°42'2 3.0
2017-Dec-10 21:00N 33°27' W 117°43'2712.5
2017-Dec-10 18:53N 33°21' W 118°14'2127.3
2017-Dec-10 18:07N 33°25' W 117°50'527.5
2017-Dec-10 17:55N 33°27' W 117°43'2 0.1
2017-Dec-10 01:55N 33°28' W 117°42'18 2.5
2017-Dec-09 18:34N 33°24' W 118°03'226.4
2017-Dec-09 18:30N 33°24' W 118°01'1326.1
2017-Dec-09 18:00N 33°26' W 117°46'4 7.5
2017-Dec-09 17:30N 33°28' W 117°42'0 0.0
2017-Dec-09 02:50N 33°28' W 117°42'0 0.0
2017-Dec-09 02:30N 33°28' W 117°42'0 0.0
2017-Dec-09 02:00N 33°28' W 117°42'613.0
2017-Dec-09 01:30N 33°25' W 117°49'1427.3
2017-Dec-09 01:00N 33°23' W 118°05'8 7.9
2017-Dec-08 23:59N 33°21' W 118°15'1527.2
2017-Dec-08 23:26N 33°25' W 117°58'4 7.7
2017-Dec-08 22:59N 33°25' W 117°54'1022.1
2017-Dec-08 22:30N 33°28' W 117°42'0 0.0
2017-Dec-08 22:00N 33°28' W 117°42'0 0.0
2017-Dec-08 21:31N 33°28' W 117°42'1 2.2
2017-Dec-08 21:00N 33°27' W 117°42'18 7.4
2017-Dec-08 18:35N 33°23' W 118°03'227.1
2017-Dec-08 18:30N 33°23' W 118°01'1326.9
2017-Dec-08 18:01N 33°26' W 117°45'3 6.5
2017-Dec-08 17:30N 33°28' W 117°42'0 0.0
2017-Dec-08 17:00N 33°28' W 117°42'0 0.1
2017-Dec-08 16:21N 33°28' W 117°41'0 0.0
2017-Dec-08 01:44N 33°27' W 117°42'0 0.0
2017-Dec-07 02:24N 33°28' W 117°42'0 0.0
2017-Dec-07 01:57N 33°28' W 117°42'2822.6
2017-Dec-07 00:42N 33°22' W 118°15'  
2017-Dec-04 01:54N 33°28' W 117°42'819.6
2017-Dec-04 01:30N 33°25' W 117°50'1 0.2
2017-Dec-03 22:52N 33°26' W 117°50'7 4.3
2017-Dec-03 21:11N 33°27' W 117°41'525.6
2017-Dec-03 20:59N 33°26' W 117°47'2323.5
2017-Dec-03 20:00N 33°22' W 118°15'28 1.6
2017-Dec-03 02:07N 33°28' W 117°42'0 0.0
2017-Dec-03 02:00N 33°28' W 117°42'715.3
2017-Dec-03 01:30N 33°24' W 117°50'24 4.4
2017-Dec-02 20:07N 33°23' W 118°18'327.9
2017-Dec-02 19:59N 33°27' W 118°17'1328.1
2017-Dec-02 19:31N 33°40' W 118°12'612.5
2017-Dec-02 19:00N 33°46' W 118°12'  

Dump ship's entire track history